Weather History for KAVK - February, 2012

Change the Weather History Date:

Thursday, February 16, 2012

  Actual Average Record
Temperature  
Mean Temperature 39 °F -  
Max Temperature 50 °F 48 °F 75 °F (2011)
Min Temperature 28 °F 23 °F 3 °F (1979)
Degree Days  
Heating Degree Days 26    
Moisture  
Dew Point 28 °F    
Average Humidity 70    
Maximum Humidity 100    
Minimum Humidity 40    
Precipitation  
Precipitation 0.00 in - - ()
Sea Level Pressure  
Sea Level Pressure 30.27 in    
Wind  
Wind Speed 8 mph (NNE)    
Max Wind Speed 12 mph    
Max Gust Speed -    
Visibility 10 miles    
Events      
Averages and records for this station are not official NWS values.
T = Trace of Precipitation, MM = Missing Value Source: NWS Daily Summary

Daily Weather History Graph

Daily Weather History Graph

Search for Another Location

Airport or City:

Trip Planner

Search our weather history database for the weather conditions in past years. The results will help you decide how hot, cold, wet, or windy it might be!

Date:

Astronomy

Feb. 16, 2012 Rise Set
Actual Time 7:22 AM CST 6:15 PM CST
Civil Twilight 6:55 AM CST 6:42 PM CST
Nautical Twilight 6:25 AM CST 7:12 PM CST
Astronomical Twilight 5:55 AM CST 7:42 PM CST
Moon 3:14 AM CST (2/16) 1:13 PM CST (2/16)
Length of Visible Light 11h 46m
Length of Day
10h 53m
Waning Crescent, 28% of the Moon is Illuminated
Feb 16
Waning Crescent
Feb 21
New
Feb 29
First Quarter
Mar 8
Full
Mar 14
Last Quarter

Hourly Weather History & Observations

Time (CST) Temp. Windchill Dew Point Humidity Pressure Visibility Wind Dir Wind Speed Gust Speed Precip Events Conditions
12:10 AM 37.4 °F 30.3 °F 32.0 °F 81% 30.19 in 10.0 mi North 10.4 mph - N/A   Overcast
12:30 AM 35.6 °F 27.5 °F 32.0 °F 87% 30.20 in 10.0 mi North 11.5 mph - N/A   Overcast
1:10 AM 33.8 °F 26.4 °F 32.0 °F 93% 30.20 in 10.0 mi North 9.2 mph - N/A   Scattered Clouds
1:30 AM 33.8 °F 26.4 °F 32.0 °F 93% 30.21 in 10.0 mi North 9.2 mph - N/A   Partly Cloudy
1:50 AM 32.0 °F 23.0 °F 32.0 °F 100% 30.21 in 10.0 mi North 11.5 mph - N/A   Clear
2:10 AM 32.0 °F 23.6 °F 32.0 °F 100% 30.22 in 10.0 mi North 10.4 mph - N/A   Clear
2:30 AM 32.0 °F 23.6 °F 30.2 °F 93% 30.22 in 10.0 mi North 10.4 mph - N/A   Clear
2:50 AM 32.0 °F 24.8 °F 30.2 °F 93% 30.23 in 10.0 mi North 8.1 mph - N/A   Clear
3:10 AM 32.0 °F 24.2 °F 28.4 °F 87% 30.23 in 10.0 mi North 9.2 mph - N/A   Clear
3:30 AM 32.0 °F 25.6 °F 28.4 °F 87% 30.24 in 10.0 mi NW 6.9 mph - N/A   Clear
3:50 AM 30.2 °F 22.6 °F 28.4 °F 93% 30.26 in 10.0 mi NW 8.1 mph - N/A   Clear
4:10 AM 30.2 °F 22.6 °F 28.4 °F 93% 30.25 in 10.0 mi NNW 8.1 mph - N/A   Clear
4:30 AM 30.2 °F 21.9 °F 26.6 °F 86% 30.26 in 10.0 mi NW 9.2 mph - N/A   Clear
4:50 AM 30.2 °F 21.9 °F 26.6 °F 86% 30.27 in 10.0 mi NW 9.2 mph - N/A   Clear
5:10 AM 30.2 °F 21.9 °F 26.6 °F 86% 30.26 in 10.0 mi NNW 9.2 mph - N/A   Clear
5:30 AM 30.2 °F 23.4 °F 26.6 °F 86% 30.27 in 10.0 mi NW 6.9 mph - N/A   Clear
5:50 AM 28.4 °F 19.7 °F 26.6 °F 93% 30.28 in 10.0 mi NW 9.2 mph - N/A   Clear
6:10 AM 30.2 °F 21.9 °F 26.6 °F 86% 30.28 in 10.0 mi NNW 9.2 mph - N/A   Clear
6:30 AM 28.4 °F 22.2 °F 26.6 °F 93% 30.30 in 10.0 mi NW 5.8 mph - N/A   Clear
6:50 AM 28.4 °F 19.7 °F 24.8 °F 86% 30.31 in 10.0 mi NW 9.2 mph - N/A   Clear
7:10 AM 28.4 °F 20.4 °F 24.8 °F 86% 30.31 in 10.0 mi NNW 8.1 mph - N/A   Clear
7:30 AM 28.4 °F 19.7 °F 24.8 °F 86% 30.31 in 10.0 mi NNW 9.2 mph - N/A   Clear
7:50 AM 30.2 °F 24.3 °F 24.8 °F 80% 30.32 in 10.0 mi NW 5.8 mph - N/A   Clear
8:10 AM 30.2 °F 24.3 °F 26.6 °F 86% 30.32 in 10.0 mi NNW 5.8 mph - N/A   Clear
8:30 AM 32.0 °F 25.6 °F 26.6 °F 80% 30.32 in 10.0 mi North 6.9 mph - N/A   Clear
8:50 AM 32.0 °F 27.5 °F 26.6 °F 80% 30.33 in 10.0 mi North 4.6 mph - N/A   Clear
9:10 AM 35.6 °F 30.7 °F 26.6 °F 70% 30.34 in 10.0 mi North 5.8 mph - N/A   Clear
9:30 AM 35.6 °F 29.2 °F 28.4 °F 75% 30.34 in 10.0 mi NNE 8.1 mph - N/A   Clear
10:10 AM 39.2 °F 33.6 °F 28.4 °F 65% 30.34 in 10.0 mi NE 8.1 mph - N/A   Clear
10:30 AM 39.2 °F 33.6 °F 28.4 °F 65% 30.34 in 10.0 mi NE 8.1 mph - N/A   Clear
10:50 AM 41.0 °F 37.1 °F 28.4 °F 61% 30.34 in 10.0 mi East 5.8 mph - N/A   Clear
11:10 AM 41.0 °F 35.2 °F 28.4 °F 61% 30.33 in 10.0 mi East 9.2 mph - N/A   Clear
11:30 AM 42.8 °F 39.3 °F 26.6 °F 53% 30.33 in 10.0 mi ENE 5.8 mph - N/A   Clear
11:50 AM 44.6 °F 41.4 °F 26.6 °F 49% 30.33 in 10.0 mi East 5.8 mph - N/A   Clear
12:10 PM 44.6 °F 42.2 °F 28.4 °F 53% 30.33 in 10.0 mi ESE 4.6 mph - N/A   Clear
12:30 PM 44.6 °F - 26.6 °F 49% 30.32 in 10.0 mi Calm Calm - N/A   Clear
12:50 PM 44.6 °F - 26.6 °F 49% 30.31 in 10.0 mi Calm Calm - N/A   Clear
1:10 PM 44.6 °F 41.4 °F 28.4 °F 53% 30.29 in 10.0 mi East 5.8 mph - N/A   Clear
1:30 PM 46.4 °F 43.5 °F 26.6 °F 46% 30.27 in 10.0 mi East 5.8 mph - N/A   Clear
1:50 PM 46.4 °F 42.9 °F 26.6 °F 46% 30.26 in 10.0 mi ESE 6.9 mph - N/A   Clear
2:10 PM 48.2 °F - 28.4 °F 46% 30.25 in 10.0 mi East 6.9 mph - N/A   Clear
2:30 PM 46.4 °F 45.2 °F 28.4 °F 50% 30.25 in 10.0 mi SSE 3.5 mph - N/A   Clear
2:50 PM 48.2 °F - 28.4 °F 46% 30.25 in 10.0 mi SE 4.6 mph - N/A   Clear
3:10 PM 48.2 °F - 28.4 °F 46% 30.25 in 10.0 mi ESE 4.6 mph - N/A   Clear
3:30 PM 48.2 °F - 28.4 °F 46% 30.25 in 10.0 mi East 6.9 mph - N/A   Clear
3:50 PM 48.2 °F - 28.4 °F 46% 30.24 in 10.0 mi SE 6.9 mph - N/A   Clear
4:10 PM 50.0 °F - 26.6 °F 40% 30.23 in 10.0 mi ESE 6.9 mph - N/A   Clear
4:30 PM 50.0 °F - 26.6 °F 40% 30.23 in 10.0 mi SE 8.1 mph - N/A   Clear
4:50 PM 48.2 °F - 26.6 °F 43% 30.23 in 10.0 mi SE 9.2 mph - N/A   Clear
5:10 PM 48.2 °F - 28.4 °F 46% 30.21 in 10.0 mi ESE 5.8 mph - N/A   Clear
5:30 PM 46.4 °F 43.5 °F 30.2 °F 53% 30.21 in 10.0 mi ESE 5.8 mph - N/A   Clear
5:50 PM 46.4 °F 44.3 °F 32.0 °F 57% 30.21 in 10.0 mi ESE 4.6 mph - N/A   Clear
6:10 PM 46.4 °F 44.3 °F 32.0 °F 57% 30.21 in 10.0 mi ESE 4.6 mph - N/A   Scattered Clouds
6:30 PM 44.6 °F 40.7 °F 33.8 °F 66% 30.20 in 10.0 mi SE 6.9 mph - N/A   Mostly Cloudy
6:50 PM 42.8 °F 38.6 °F 33.8 °F 70% 30.21 in 10.0 mi SE 6.9 mph - N/A   Partly Cloudy
7:10 PM 41.0 °F 36.4 °F 33.8 °F 76% 30.21 in 10.0 mi SE 6.9 mph - N/A   Clear
7:30 PM 41.0 °F 37.1 °F 32.0 °F 70% 30.21 in 10.0 mi SE 5.8 mph - N/A   Clear
7:50 PM 41.0 °F 36.4 °F 32.0 °F 70% 30.21 in 10.0 mi SE 6.9 mph - N/A   Clear
8:10 PM 41.0 °F 36.4 °F 32.0 °F 70% 30.21 in 10.0 mi SE 6.9 mph - N/A   Clear
8:30 PM 39.2 °F 34.2 °F 32.0 °F 75% 30.21 in 10.0 mi SSE 6.9 mph - N/A   Clear
8:50 PM 39.2 °F 33.6 °F 32.0 °F 75% 30.20 in 10.0 mi SSE 8.1 mph - N/A   Clear
9:10 PM 37.4 °F 34.9 °F 32.0 °F 81% 30.21 in 10.0 mi SSE 3.5 mph - N/A   Clear
9:30 PM 37.4 °F 34.9 °F 32.0 °F 81% 30.22 in 10.0 mi South 3.5 mph - N/A   Clear
9:50 PM 39.2 °F 35.9 °F 32.0 °F 75% 30.22 in 10.0 mi SSW 4.6 mph - N/A   Clear
10:10 PM 39.2 °F 37.0 °F 32.0 °F 75% 30.21 in 10.0 mi SSW 3.5 mph - N/A   Clear
10:30 PM 39.2 °F 37.0 °F 32.0 °F 75% 30.21 in 10.0 mi SW 3.5 mph - N/A   Clear
11:10 PM 39.2 °F 37.0 °F 32.0 °F 75% 30.20 in 10.0 mi SSW 3.5 mph - N/A   Clear
11:30 PM 39.2 °F 35.0 °F 32.0 °F 75% 30.20 in 10.0 mi South 5.8 mph - N/A   Clear
11:50 PM 39.2 °F 35.0 °F 32.0 °F 75% 30.19 in 10.0 mi South 5.8 mph - N/A   Partly Cloudy